W5MAI Weather Reports


time (UTC)temp
C
wind
direction
speed
KPH
gust
KPH
rain 1hr
cm
rain 24hr
cm
rain mn
cm
humidity
%
barometer
mb
20260506222412 22 346 3.2 14.5 0.00 0.00 0.00 73 1012.6
20260506221325 22 43 3.2 14.5 0.00 0.00 0.00 73 1012.5
20260506220348 22 330 3.2 14.5 0.00 0.00 0.00 73 1012.3
20260506215418 23 332 3.2 8.0 0.00 0.00 0.00 74 1012.3
20260506214323 23 340 3.2 8.0 0.00 0.00 0.00 72 1012.3
20260506213359 24 96 3.2 9.7 0.00 0.00 0.00 71 1012.2
20260506212422 24 22 3.2 12.9 0.00 0.00 0.00 72 1012.1
20260506205350 25 355 3.2 8.0 0.00 0.00 0.00 73 1012.2
20260506204409 24 5 1.6 9.7 0.00 0.00 0.00 76 1012.1
20260506203337 24 58 3.2 9.7 0.00 0.00 0.00 75 1012.1
20260506202350 24 77 3.2 11.3 0.00 0.00 0.00 75 1012.2
20260506201420 25 5 3.2 8.0 0.00 0.00 0.00 73 1012.0
20260506200333 27 11 4.8 17.7 0.00 0.00 0.00 72 1012.1
20260506195356 27 51 1.6 12.9 0.00 0.00 0.00 74 1012.0
20260506194418 27 62 0.0 6.4 0.00 0.00 0.00 73 1011.9
20260506190354 27 67 6.4 14.5 0.00 0.00 0.00 73 1011.9
20260506185323 28 73 0.0 1.6 0.00 0.00 0.00 73 1012.1
20260506181400 27 43 0.0 4.8 0.00 0.00 0.00 76 1012.5
20260506180421 27 103 3.2 9.7 0.00 0.00 0.00 74 1012.5
20260506175342 26 63 1.6 12.9 0.00 0.00 0.00 78 1012.6
20260506174400 25 93 6.4 16.1 0.00 0.00 0.00 79 1012.6
20260506173333 25 83 4.8 14.5 0.00 0.00 0.00 80 1012.7
20260506172358 23 5 1.6 4.8 0.00 0.00 0.00 81 1012.9
20260506171325 23 24 0.0 8.0 0.00 0.00 0.00 81 1013.2
20260506170353 23 69 1.6 4.8 0.00 0.00 0.00 80 1013.1
20260506165415 25 56 3.2 11.3 0.00 0.00 0.00 80 1013.1
20260506163332 25 74 3.2 14.5 0.00 0.00 0.00 83 1013.0
20260506161329 25 60 3.2 9.7 0.00 0.00 0.00 83 1012.9
20260506160351 25 78 6.4 16.1 0.00 0.00 0.00 84 1012.8
20260506155407 25 64 3.2 8.0 0.00 0.00 0.00 85 1012.9
20260506154326 25 88 0.0 3.2 0.00 0.00 0.00 85 1012.9
20260506151402 24 71 4.8 8.0 0.00 0.00 0.00 87 1012.1
20260506150324 23 186 0.0 3.2 0.00 0.00 0.00 88 1011.9
20260506145358 23 186 1.6 4.8 0.00 0.00 0.00 89 1011.9
20260506144331 23 186 0.0 1.6 0.00 0.00 0.00 89 1011.9
20260506142323 23 186 0.0 0.0 0.00 0.00 0.00 89 1012.1
20260506141359 23 186 0.0 4.8 0.00 0.00 0.00 90 1012.0
20260506140331 23 186 1.6 4.8 0.00 0.00 0.00 90 1011.6
20260506134328 23 156 3.2 9.7 0.00 0.00 0.00 90 1011.0
20260506133351 23 155 3.2 6.4 0.00 0.00 0.00 90 1010.7
20260506132413 23 136 4.8 9.7 0.00 0.00 0.00 90 1010.6
20260506131328 23 88 3.2 9.7 0.00 0.00 0.00 90 1010.6
20260506130350 23 101 1.6 8.0 0.00 0.00 0.00 90 1010.4
20260506125324 23 171 4.8 6.4 0.00 0.00 0.00 90 1010.2
20260506124356 23 162 3.2 9.7 0.00 0.00 0.00 90 1010.4
20260506123420 23 157 3.2 8.0 0.00 0.00 0.00 90 1010.3
20260506122343 23 161 1.6 8.0 0.00 0.00 0.00 90 1010.4
20260506121400 23 161 1.6 3.2 0.00 0.00 0.00 90 1010.5
20260506120330 23 161 0.0 0.0 0.00 0.00 0.00 90 1010.4
20260506115406 23 161 0.0 1.6 0.00 0.00 0.00 90 1010.4
20260506114325 23 161 0.0 0.0 0.00 0.00 0.00 90 1010.3
20260506113358 23 161 0.0 0.0 0.00 0.00 0.00 90 1010.2
20260506112414 23 161 0.0 1.6 0.00 0.00 0.00 89 1010.2
20260506111421 23 161 0.0 3.2 0.00 0.00 0.00 89 1010.1
20260506105339 23 131 1.6 4.8 0.00 0.00 0.00 89 1010.1
20260506104344 23 157 1.6 8.0 0.00 0.00 0.00 89 1010.0
20260506103357 23 194 0.0 8.0 0.00 0.00 0.00 90 1009.8
20260506102417 23 192 1.6 8.0 0.00 0.00 0.00 90 1009.9
20260506100325 23 147 1.6 8.0 0.00 0.00 0.00 90 1010.0
20260506093348 23 186 1.6 8.0 0.00 0.00 0.00 88 1009.8
20260506092417 23 199 3.2 11.3 0.00 0.00 0.00 88 1009.9
20260506091335 23 162 3.2 16.1 0.00 0.00 0.00 88 1009.7
20260506090419 23 196 8.0 17.7 0.00 0.00 0.00 88 1009.7
20260506083408 23 168 6.4 16.1 0.00 0.00 0.00 88 1009.6
20260506082323 23 203 8.0 14.5 0.00 0.00 0.00 88 1009.6
20260506081426 23 146 6.4 17.7 0.00 0.00 0.00 89 1009.8
20260506080351 23 187 6.4 12.9 0.00 0.00 0.00 89 1009.9
20260506073416 23 155 6.4 14.5 0.00 0.00 0.00 89 1010.0
20260506072422 23 157 3.2 12.9 0.00 0.00 0.00 89 1010.0
20260506070351 23 156 4.8 19.3 0.00 0.00 0.00 89 1010.2
20260506062342 23 184 4.8 17.7 0.00 0.00 0.00 88 1010.4
20260506061326 23 161 8.0 16.1 0.00 0.00 0.00 88 1010.4
20260506060338 23 197 6.4 16.1 0.00 0.00 0.00 88 1010.5
20260506051328 24 150 6.4 12.9 0.00 0.00 0.00 88 1010.2
20260506050335 24 165 4.8 12.9 0.00 0.00 0.00 87 1010.4
20260506044421 24 142 8.0 16.1 0.00 0.00 0.00 87 1010.2
20260506043346 25 123 8.0 16.1 0.00 0.00 0.00 87 1010.2
20260506042421 25 143 4.8 16.1 0.00 0.00 0.00 87 1010.3
20260506041332 25 163 6.4 14.5 0.00 0.00 0.00 87 1010.2
20260506040348 25 217 4.8 12.9 0.00 0.00 0.00 87 1010.0
20260506035422 25 169 4.8 11.3 0.00 0.00 0.00 86 1009.9
20260506032341 25 138 8.0 16.1 0.00 0.00 0.00 85 1009.5
20260506031410 25 147 9.7 14.5 0.00 0.00 0.00 85 1009.3
20260506030412 25 155 4.8 9.7 0.00 0.00 0.00 84 1009.1
20260506025342 25 146 4.8 11.3 0.00 0.00 0.00 84 1008.9
20260506024358 25 151 3.2 8.0 0.00 0.00 0.00 83 1008.9
20260506023323 26 159 4.8 12.9 0.00 0.00 0.00 82 1008.8
20260506022358 26 140 4.8 8.0 0.00 0.00 0.00 81 1008.6
20260506021420 26 135 1.6 6.4 0.00 0.00 0.00 81 1008.4
20260506014354 26 143 1.6 4.8 0.00 0.00 0.00 80 1007.9
20260506013415 26 132 1.6 4.8 0.00 0.00 0.00 79 1007.9
20260506012345 26 133 0.0 0.0 0.00 0.00 0.00 78 1007.8
20260506011404 27 132 0.0 4.8 0.00 0.00 0.00 77 1007.8
20260506010332 27 132 3.2 6.4 0.00 0.00 0.00 76 1007.7
20260506005341 27 145 3.2 4.8 0.00 0.00 0.00 75 1007.7
20260506004408 28 141 1.6 4.8 0.00 0.00 0.00 74 1007.7
20260506003328 28 220 0.0 0.0 0.00 0.00 0.00 74 1007.6
20260506002403 28 220 0.0 0.0 0.00 0.00 0.00 72 1007.7
20260506001335 28 220 0.0 6.4 0.00 0.00 0.00 71 1007.6
20260506000340 28 186 4.8 8.0 0.00 0.00 0.00 70 1007.5
20260505235408 28 190 0.0 4.8 0.00 0.00 0.00 70 1007.5
20260505234329 28 190 3.2 12.9 0.00 0.00 0.00 69 1007.5
20260505233402 29 252 8.0 14.5 0.00 0.00 0.00 68 1007.5
20260505232420 28 127 3.2 9.7 0.00 0.00 0.00 69 1007.4
20260505230333 29 186 6.4 16.1 0.00 0.00 0.00 68 1007.5
20260505225400 29 92 9.7 16.1 0.00 0.00 0.00 68 1007.4
20260505224422 29 184 4.8 16.1 0.00 0.00 0.00 69 1007.3
20260505223347 29 113 8.0 16.1 0.00 0.00 0.00 68 1007.2